NOAA 16 DEB, 42334

Orbit data source: Space-Track

NOAA 16 DEB, 42334 is space debris in SSO originally from a launch on Thu, 21 Sep 2000 UTC launched from the Air Force Western Test Range (AFWTR). Debris objects in space refer to the collection of defunct objects orbiting the Earth. Examples of debris include non-operational satellites, rocket bodies, and fragments generated from explosions, collisions, or faulty payload assembly.

Loading next visibility...
Identifier
42334, 2000-055QA
Orbit
SSO
Country
Flag of USUS
Related business
Manufacturer
Unknown
Mission
Spacecraft
Bus & Motor
Unknown
Mass
Unknown
Launch date (UTC)
2000-09-21 (25 years ago)
Launch vehicle
Unknown
Launch site
Air Force Western Test Range (AFWTR)
Object type
Payload
Rocket body
Debris
Shape & HBR
Unknown shape, 0.1 m
Radar Cross Section
Small (<0.1 m²)

Expand to show TLE details & history
Last TLE update: 1 week ago

TLE from 1 week ago
0 NOAA 16 DEB
1 42334U 00055QA  25345.60788419  .00010112  00000-0  34191-2 0  9993
2 42334  98.8386 104.4011 0011438  34.9985 325.1950 14.37006456484889
Epoch: 2025-12-11T14:35Z
TLE epoch observation values (Epoch: 2025-12-11T14:35:21.194Z)
Latitude
-0.00001°
Longitude
165.00137°
Altitude
764.63 km
Speed
7.475 km/s
True Right ascension
06h 57m 36s
True Declination
0° 00' 00"
Sunlit
Object was in full shadow at epoch
Visualization orbit readout
Latitude
Unknown
Longitude
Unknown
Altitude
Unknown
Speed
Unknown
Apparent Right ascension
Unknown
Apparent Declination
Unknown
Sunlit
N/A
Visualization observer readout
Local Sidereal Time
00:43:55
Azimuth
Unknown
Elevation
Unknown
Doppler factor
Unknown
Orbital elements
Apogee altitude
773.719 km
Perigee altitude
757.377 km
Semi-major axis
7,143.685 km
Eccentricity
0.00114
Inclination
98.8386°
RAAN
104.4011°
Arg. of periapsis
34.9985°
True anomaly
325.1201°
Mean anomaly
325.195°
Eccentric anomaly
325.15756°
Mean motion
3.59468 °/min
Orbital period
100.15 mins
BSTAR
0.0034191
Loading maneuver chart data...
Computing Atmospheric mass density...
Loading historical data...
Loading historical data...
Loading historical data...
Loading historical data...
Loading historical data...
Loading historical data...
Loading historical data...

Documentation

Showing up to 5 results
|